星链-2149 (STARLINK-2149 )
导读 | 豆包AI
STARLINK-2149是美国SpaceX公司星链星座的V1.0批次卫星,于2021年3月4日发射入轨,属于Starlink第一代组网卫星。它配备Ku/Ka波段相控阵通信载荷与氪离子霍尔推进器,具备自主轨道维持和避碰能力,运行在约550公里的近地轨道,为全球提供低延迟宽带互联网接入服务,设计寿命约5年,退役后会主动离轨再入大气层焚毁,避免空间垃圾产生。目前已服役超5年,属于星链早期组网的核心卫星之一。
Basic Information
目录编号:
47738
目录名称:
STARLINK-2149
国际标识:
2021-017S
轨道中心:
EARTH
卫星名称:
星链-2149
卫星全名:
星链-2149 (STARLINK-2149 )
卫星状态:
已陨落 最后检测时间 2024-04-13
发射日期:
2021-03-04 UTC
国别 :
美国
(US)
星等 :
--
Orbit Information
| 数据来源 | 国际轨道数据 |
| 星历时间: | 2024-04-09T22:00:01+0800 轨道信息已过期776天 |
| 半长轴: | 6668.415km |
| 偏心率: | 0.000786 |
| 轨道倾角: | 53.046° |
| 近地点辐角 | 147.394° |
| 升交点赤经 | 27.219° |
| 平近点角 | 315.454° |
| 近地点: | 285.038km |
| 远地点: | 295.522km |
| 周期: | 90.322分钟 |
| 每日圈数: | 15.942958 |
Detailed Information
固有亮度:
5
最大亮度:
2.5
卫星平台:
Starlink V1.0
覆盖范围:
全球
运营商:
太空探索技术公司
运营商所在国:
美国
制造商(研发单位):
太空探索技术公司
制造商所在国:
美国
使用方式:
暂无
Satellite Introduction
星链(Starlink)计划是由太空探索技术公司(SpaceX)提出的一个巨型低轨卫星互联网星座项目,计划在2019年至2024年间在太空搭建由约1.2万颗卫星组成的“星链”网络,其中1584颗将部署在地球上空550千米处的近地轨道,并从2020年开始工作。该卫星已陨落。

